Time,TemperatureF,DewpointF,PressureIn,WindDirection,WindDirectionDegrees,WindSpeedMPH,WindSpeedGustMPH,Humidity,HourlyPrecipIn,Conditions,Clouds,dailyrainin,SoftwareType,DateUTC
2013-02-04 00:01:00,44.0,25.0,29.82,SSW,199,2.0,6.0,47,0.00,,,0.00,,2013-02-04 06:01:00,
2013-02-04 00:11:00,44.0,25.0,29.82,SSW,199,2.0,6.0,47,0.00,,,0.00,,2013-02-04 06:11:00,
2013-02-04 00:21:00,44.0,25.0,29.80,SSW,209,7.0,7.0,47,0.00,,,0.00,,2013-02-04 06:21:00,
2013-02-04 00:31:00,44.0,25.0,29.80,SSW,209,7.0,7.0,47,0.00,,,0.00,,2013-02-04 06:31:00,
2013-02-04 00:42:00,44.0,25.0,29.80,SSW,209,7.0,7.0,47,0.00,,,0.00,,2013-02-04 06:42:00,
2013-02-04 00:52:00,44.0,26.0,29.79,SSW,204,3.0,6.0,48,0.00,,,0.00,,2013-02-04 06:52:00,
2013-02-04 01:02:00,44.0,26.0,29.79,SSW,204,3.0,6.0,48,0.00,,,0.00,,2013-02-04 07:02:00,
2013-02-04 01:11:00,44.0,26.0,29.79,SW,227,4.0,7.0,48,0.00,,,0.00,,2013-02-04 07:11:00,
2013-02-04 01:21:00,44.0,26.0,29.79,SW,227,4.0,7.0,48,0.00,,,0.00,,2013-02-04 07:21:00,
2013-02-04 01:31:00,44.0,26.0,29.79,SW,227,4.0,7.0,48,0.00,,,0.00,,2013-02-04 07:31:00,
2013-02-04 01:42:00,44.0,26.0,29.79,SW,227,4.0,7.0,48,0.00,,,0.00,,2013-02-04 07:42:00,
2013-02-04 01:52:00,44.0,26.0,29.80,SSW,208,3.0,4.0,49,0.00,,,0.00,,2013-02-04 07:52:00,
2013-02-04 02:01:00,44.0,26.0,29.80,SSW,208,3.0,4.0,49,0.00,,,0.00,,2013-02-04 08:01:00,
2013-02-04 02:11:00,44.0,26.0,29.80,SSW,208,3.0,4.0,49,0.00,,,0.00,,2013-02-04 08:11:00,
2013-02-04 02:21:00,45.0,27.0,29.76,SSW,213,5.0,9.0,49,0.00,,,0.00,,2013-02-04 08:21:00,
2013-02-04 02:31:00,45.0,27.0,29.76,SSW,213,5.0,9.0,49,0.00,,,0.00,,2013-02-04 08:31:00,
2013-02-04 02:42:00,45.0,27.0,29.76,SSW,213,5.0,9.0,49,0.00,,,0.00,,2013-02-04 08:42:00,
2013-02-04 02:52:00,45.0,27.0,29.75,SW,232,5.0,5.0,49,0.00,,,0.00,,2013-02-04 08:52:00,
2013-02-04 03:02:00,45.0,27.0,29.75,SW,232,5.0,5.0,49,0.00,,,0.00,,2013-02-04 09:02:00,
2013-02-04 03:11:00,46.0,28.0,29.75,WSW,247,2.0,2.0,49,0.00,,,0.00,,2013-02-04 09:11:00,
2013-02-04 03:21:00,46.0,28.0,29.75,WSW,247,2.0,2.0,49,0.00,,,0.00,,2013-02-04 09:21:00,
2013-02-04 03:31:00,46.0,28.0,29.75,WSW,247,2.0,2.0,49,0.00,,,0.00,,2013-02-04 09:31:00,
2013-02-04 03:42:00,46.0,28.0,29.75,WSW,247,2.0,2.0,49,0.00,,,0.00,,2013-02-04 09:42:00,
2013-02-04 03:52:00,46.0,28.0,29.76,SW,236,2.0,5.0,49,0.00,,,0.00,,2013-02-04 09:52:00,
2013-02-04 04:01:00,46.0,28.0,29.76,SW,236,2.0,5.0,49,0.00,,,0.00,,2013-02-04 10:01:00,
2013-02-04 04:11:00,46.0,28.0,29.76,SW,236,2.0,5.0,49,0.00,,,0.00,,2013-02-04 10:11:00,
2013-02-04 04:21:00,45.0,28.0,29.76,West,260,2.0,3.0,51,0.00,,,0.00,,2013-02-04 10:21:00,
2013-02-04 04:32:00,45.0,28.0,29.76,West,260,2.0,3.0,51,0.00,,,0.00,,2013-02-04 10:32:00,
2013-02-04 04:42:00,45.0,28.0,29.76,West,260,2.0,3.0,51,0.00,,,0.00,,2013-02-04 10:42:00,
2013-02-04 04:52:00,44.0,28.0,29.77,WSW,243,2.0,2.0,53,0.00,,,0.00,,2013-02-04 10:52:00,
2013-02-04 05:01:00,44.0,28.0,29.77,WSW,243,2.0,2.0,53,0.00,,,0.00,,2013-02-04 11:01:00,
2013-02-04 05:11:00,44.0,28.0,29.77,WSW,243,2.0,2.0,53,0.00,,,0.00,,2013-02-04 11:11:00,
2013-02-04 05:22:00,43.0,28.0,29.77,West,261,1.0,2.0,55,0.00,,,0.00,,2013-02-04 11:22:00,
2013-02-04 05:32:00,43.0,28.0,29.77,West,261,1.0,2.0,55,0.00,,,0.00,,2013-02-04 11:32:00,
2013-02-04 05:42:00,43.0,28.0,29.77,West,261,1.0,2.0,55,0.00,,,0.00,,2013-02-04 11:42:00,
2013-02-04 05:52:00,43.0,28.0,29.77,SW,220,2.0,2.0,56,0.00,,,0.00,,2013-02-04 11:52:00,
2013-02-04 06:02:00,43.0,28.0,29.77,SW,220,2.0,2.0,56,0.00,,,0.00,,2013-02-04 12:02:00,
2013-02-04 06:12:00,43.0,28.0,29.77,SW,220,2.0,2.0,56,0.00,,,0.00,,2013-02-04 12:12:00,
2013-02-04 06:22:00,42.0,27.0,29.77,SW,230,3.0,3.0,56,0.00,,,0.00,,2013-02-04 12:22:00,
2013-02-04 06:32:00,42.0,27.0,29.77,SW,230,3.0,3.0,56,0.00,,,0.00,,2013-02-04 12:32:00,
2013-02-04 06:42:00,42.0,27.0,29.77,SW,230,3.0,3.0,56,0.00,,,0.00,,2013-02-04 12:42:00,
2013-02-04 06:53:00,41.0,27.0,29.76,WSW,239,3.0,4.0,58,0.00,,,0.00,,2013-02-04 12:53:00,
2013-02-04 07:02:00,41.0,27.0,29.76,WSW,239,3.0,4.0,58,0.00,,,0.00,,2013-02-04 13:02:00,
2013-02-04 07:12:00,41.0,28.0,29.78,WSW,238,2.0,3.0,60,0.00,,,0.00,,2013-02-04 13:12:00,
2013-02-04 07:21:00,41.0,28.0,29.78,WSW,238,2.0,3.0,60,0.00,,,0.00,,2013-02-04 13:21:00,
2013-02-04 07:33:00,41.0,28.0,29.78,WSW,238,2.0,3.0,60,0.00,,,0.00,,2013-02-04 13:33:00,
2013-02-04 07:42:00,41.0,28.0,29.78,WSW,238,2.0,3.0,60,0.00,,,0.00,,2013-02-04 13:42:00,
2013-02-04 07:52:00,40.0,28.0,29.79,West,272,2.0,3.0,62,0.00,,,0.00,,2013-02-04 13:52:00,
2013-02-04 08:03:00,40.0,28.0,29.79,West,272,2.0,3.0,62,0.00,,,0.00,,2013-02-04 14:03:00,
2013-02-04 08:12:00,40.0,28.0,29.79,West,272,2.0,3.0,62,0.00,,,0.00,,2013-02-04 14:12:00,
2013-02-04 08:22:00,41.0,28.0,29.81,NW,323,4.0,4.0,60,0.00,,,0.00,,2013-02-04 14:22:00,
2013-02-04 08:32:00,41.0,28.0,29.81,NW,323,4.0,4.0,60,0.00,,,0.00,,2013-02-04 14:32:00,
2013-02-04 08:42:00,40.0,28.0,29.82,North,2,6.0,7.0,61,0.00,,,0.00,,2013-02-04 14:42:00,
2013-02-04 08:52:00,40.0,28.0,29.82,North,2,6.0,7.0,61,0.00,,,0.00,,2013-02-04 14:52:00,
2013-02-04 09:03:00,40.0,28.0,29.82,North,2,6.0,7.0,61,0.00,,,0.00,,2013-02-04 15:03:00,
2013-02-04 09:12:00,40.0,28.0,29.82,North,2,6.0,7.0,61,0.00,,,0.00,,2013-02-04 15:12:00,
2013-02-04 09:23:00,40.0,28.0,29.83,North,358,8.0,11.0,63,0.00,,,0.00,,2013-02-04 15:23:00,
2013-02-04 09:33:00,40.0,28.0,29.83,North,358,8.0,11.0,63,0.00,,,0.00,,2013-02-04 15:33:00,
2013-02-04 09:43:00,40.0,28.0,29.83,North,358,8.0,11.0,63,0.00,,,0.00,,2013-02-04 15:43:00,
2013-02-04 09:52:00,41.0,29.0,29.84,North,355,5.0,9.0,63,0.00,,,0.00,,2013-02-04 15:52:00,
2013-02-04 10:02:00,41.0,29.0,29.84,North,355,5.0,9.0,63,0.00,,,0.00,,2013-02-04 16:02:00,
2013-02-04 10:11:00,41.0,29.0,29.84,North,355,5.0,9.0,63,0.00,,,0.00,,2013-02-04 16:11:00,
2013-02-04 10:22:00,42.0,30.0,29.85,NNE,15,6.0,9.0,61,0.00,,,0.00,,2013-02-04 16:22:00,
2013-02-04 10:32:00,42.0,30.0,29.85,NNE,15,6.0,9.0,61,0.00,,,0.00,,2013-02-04 16:32:00,
2013-02-04 10:43:00,42.0,30.0,29.85,NNE,15,6.0,9.0,61,0.00,,,0.00,,2013-02-04 16:43:00,
2013-02-04 10:52:00,43.0,30.0,29.86,North,7,6.0,9.0,60,0.00,,,0.00,,2013-02-04 16:52:00,
2013-02-04 11:02:00,43.0,30.0,29.86,North,7,6.0,9.0,60,0.00,,,0.00,,2013-02-04 17:02:00,
2013-02-04 11:11:00,43.0,29.0,29.87,North,360,6.0,10.0,58,0.00,,,0.00,,2013-02-04 17:11:00,
2013-02-04 11:21:00,43.0,29.0,29.87,North,360,6.0,10.0,58,0.00,,,0.00,,2013-02-04 17:21:00,
2013-02-04 11:31:00,43.0,29.0,29.87,North,360,6.0,10.0,58,0.00,,,0.00,,2013-02-04 17:31:00,
2013-02-04 11:42:00,44.0,31.0,29.88,North,349,6.0,11.0,60,0.00,,,0.00,,2013-02-04 17:42:00,
2013-02-04 11:52:00,44.0,31.0,29.88,North,349,6.0,11.0,60,0.00,,,0.00,,2013-02-04 17:52:00,
2013-02-04 12:03:00,44.0,31.0,29.88,North,349,6.0,11.0,60,0.00,,,0.00,,2013-02-04 18:03:00,
2013-02-04 12:11:00,44.0,31.0,29.88,North,349,6.0,11.0,60,0.00,,,0.00,,2013-02-04 18:11:00,
2013-02-04 12:22:00,43.0,30.0,29.89,NNW,341,8.0,8.0,60,0.00,,,0.00,,2013-02-04 18:22:00,
2013-02-04 12:31:00,43.0,30.0,29.89,NNW,341,8.0,8.0,60,0.00,,,0.00,,2013-02-04 18:31:00,
2013-02-04 12:42:00,43.0,30.0,29.89,NNW,341,8.0,8.0,60,0.00,,,0.00,,2013-02-04 18:42:00,
2013-02-04 12:52:00,42.0,30.0,29.90,North,354,6.0,9.0,61,0.00,,,0.00,,2013-02-04 18:52:00,
2013-02-04 13:02:00,42.0,30.0,29.90,North,354,6.0,9.0,61,0.00,,,0.00,,2013-02-04 19:02:00,
2013-02-04 13:11:00,42.0,30.0,29.90,North,354,6.0,9.0,61,0.00,,,0.00,,2013-02-04 19:11:00,
2013-02-04 13:22:00,41.0,29.0,29.89,North,7,9.0,9.0,63,0.00,,,0.00,,2013-02-04 19:22:00,
2013-02-04 13:31:00,41.0,29.0,29.89,North,7,9.0,9.0,63,0.00,,,0.00,,2013-02-04 19:31:00,
2013-02-04 13:42:00,41.0,29.0,29.89,North,7,9.0,9.0,63,0.00,,,0.00,,2013-02-04 19:42:00,
2013-02-04 13:52:00,40.0,28.0,29.89,NNW,336,11.0,11.0,62,0.00,,,0.00,,2013-02-04 19:52:00,
2013-02-04 14:02:00,40.0,28.0,29.89,NNW,336,11.0,11.0,62,0.00,,,0.00,,2013-02-04 20:02:00,
2013-02-04 14:12:00,40.0,28.0,29.89,NNW,336,11.0,11.0,62,0.00,,,0.00,,2013-02-04 20:12:00,
2013-02-04 14:21:00,39.0,27.0,29.88,North,355,9.0,10.0,61,0.00,,,0.00,,2013-02-04 20:21:00,
2013-02-04 14:32:00,39.0,27.0,29.88,North,355,9.0,10.0,61,0.00,,,0.00,,2013-02-04 20:32:00,
2013-02-04 14:42:00,39.0,27.0,29.88,North,355,9.0,10.0,61,0.00,,,0.00,,2013-02-04 20:42:00,
2013-02-04 14:52:00,37.0,25.0,29.89,NNW,344,8.0,8.0,62,0.00,,,0.00,,2013-02-04 20:52:00,
2013-02-04 15:02:00,37.0,25.0,29.89,NNW,344,8.0,8.0,62,0.00,,,0.00,,2013-02-04 21:02:00,
2013-02-04 15:11:00,37.0,25.0,29.89,NNW,344,8.0,8.0,62,0.00,,,0.00,,2013-02-04 21:11:00,
2013-02-04 15:22:00,36.0,25.0,29.88,NNW,343,5.0,7.0,65,0.00,,,0.00,,2013-02-04 21:22:00,
2013-02-04 15:31:00,36.0,25.0,29.88,NNW,343,5.0,7.0,65,0.00,,,0.00,,2013-02-04 21:31:00,
2013-02-04 15:43:00,36.0,25.0,29.88,NNW,343,5.0,7.0,65,0.00,,,0.00,,2013-02-04 21:43:00,
2013-02-04 15:52:00,35.0,25.0,29.90,North,356,7.0,10.0,66,0.00,,,0.00,,2013-02-04 21:52:00,
2013-02-04 16:02:00,35.0,25.0,29.90,North,356,7.0,10.0,66,0.00,,,0.00,,2013-02-04 22:02:00,
2013-02-04 16:12:00,35.0,25.0,29.90,North,356,7.0,10.0,66,0.00,,,0.00,,2013-02-04 22:12:00,
2013-02-04 16:21:00,34.0,25.0,29.91,North,360,6.0,8.0,68,0.00,,,0.00,,2013-02-04 22:21:00,
2013-02-04 16:32:00,34.0,25.0,29.91,North,360,6.0,8.0,68,0.00,,,0.00,,2013-02-04 22:32:00,
2013-02-04 16:42:00,34.0,25.0,29.91,North,360,6.0,8.0,68,0.00,,,0.00,,2013-02-04 22:42:00,
2013-02-04 16:52:00,33.0,24.0,29.91,North,358,9.0,9.0,70,0.00,,,0.00,,2013-02-04 22:52:00,
2013-02-04 17:01:00,33.0,24.0,29.91,North,358,9.0,9.0,70,0.00,,,0.00,,2013-02-04 23:01:00,
2013-02-04 17:11:00,33.0,24.0,29.91,North,358,9.0,9.0,70,0.00,,,0.00,,2013-02-04 23:11:00,
2013-02-04 17:21:00,32.0,24.0,29.91,North,2,5.0,5.0,72,0.00,,,0.00,,2013-02-04 23:21:00,
2013-02-04 17:32:00,32.0,24.0,29.91,North,2,5.0,5.0,72,0.00,,,0.00,,2013-02-04 23:32:00,
2013-02-04 17:42:00,32.0,24.0,29.91,North,2,5.0,5.0,72,0.00,,,0.00,,2013-02-04 23:42:00,
2013-02-04 17:52:00,30.0,23.0,29.91,NNW,348,4.0,4.0,75,0.00,,,0.00,,2013-02-04 23:52:00,
2013-02-04 18:01:00,30.0,23.0,29.91,NNW,348,4.0,4.0,75,0.00,,,0.00,,2013-02-05 00:01:00,
2013-02-04 18:11:00,30.0,23.0,29.91,NNW,348,4.0,4.0,75,0.00,,,0.00,,2013-02-05 00:11:00,
2013-02-04 18:21:00,30.0,24.0,29.91,NNW,347,3.0,4.0,77,0.00,,,0.00,,2013-02-05 00:21:00,
2013-02-04 18:31:00,30.0,24.0,29.91,NNW,347,3.0,4.0,77,0.00,,,0.00,,2013-02-05 00:31:00,
2013-02-04 18:42:00,30.0,24.0,29.91,NNW,347,3.0,4.0,77,0.00,,,0.00,,2013-02-05 00:42:00,
2013-02-04 18:52:00,29.0,23.0,29.92,NNW,346,4.0,4.0,78,0.00,,,0.00,,2013-02-05 00:52:00,
2013-02-04 19:01:00,29.0,23.0,29.92,NNW,346,4.0,4.0,78,0.00,,,0.00,,2013-02-05 01:01:00,
2013-02-04 19:11:00,28.0,23.0,29.93,NNW,348,4.0,4.0,80,0.00,,,0.00,,2013-02-05 01:11:00,
2013-02-04 19:22:00,28.0,23.0,29.93,NNW,348,4.0,4.0,80,0.00,,,0.00,,2013-02-05 01:22:00,
2013-02-04 19:32:00,28.0,23.0,29.93,NNW,348,4.0,4.0,80,0.00,,,0.00,,2013-02-05 01:32:00,
2013-02-04 19:42:00,28.0,23.0,29.93,NNW,348,4.0,4.0,80,0.00,,,0.00,,2013-02-05 01:42:00,
2013-02-04 19:52:00,27.0,22.0,29.92,North,349,1.0,2.0,81,0.00,,,0.00,,2013-02-05 01:52:00,
2013-02-04 20:01:00,27.0,22.0,29.92,North,349,1.0,2.0,81,0.00,,,0.00,,2013-02-05 02:01:00,
2013-02-04 20:11:00,27.0,22.0,29.92,North,349,1.0,2.0,81,0.00,,,0.00,,2013-02-05 02:11:00,
2013-02-04 20:21:00,27.0,22.0,29.93,North,360,0.0,0.0,81,0.00,,,0.00,,2013-02-05 02:21:00,
2013-02-04 20:31:00,27.0,22.0,29.93,North,360,0.0,0.0,81,0.00,,,0.00,,2013-02-05 02:31:00,
2013-02-04 20:42:00,27.0,22.0,29.93,North,360,0.0,0.0,81,0.00,,,0.00,,2013-02-05 02:42:00,
2013-02-04 20:52:00,26.0,21.0,29.93,North,360,0.0,0.0,82,0.00,,,0.00,,2013-02-05 02:52:00,
2013-02-04 21:02:00,26.0,21.0,29.93,North,360,0.0,0.0,82,0.00,,,0.00,,2013-02-05 03:02:00,
2013-02-04 21:11:00,26.0,21.0,29.93,North,360,0.0,0.0,82,0.00,,,0.00,,2013-02-05 03:11:00,
2013-02-04 21:21:00,26.0,21.0,29.93,North,360,0.0,0.0,82,0.00,,,0.00,,2013-02-05 03:21:00,
2013-02-04 21:31:00,26.0,21.0,29.93,North,360,0.0,0.0,82,0.00,,,0.00,,2013-02-05 03:31:00,
2013-02-04 21:42:00,26.0,21.0,29.93,North,360,0.0,0.0,82,0.00,,,0.00,,2013-02-05 03:42:00,
2013-02-04 21:52:00,26.0,21.0,29.95,North,360,0.0,0.0,82,0.00,,,0.00,,2013-02-05 03:52:00,
2013-02-04 22:01:00,26.0,21.0,29.95,North,360,0.0,0.0,82,0.00,,,0.00,,2013-02-05 04:01:00,
2013-02-04 22:11:00,26.0,21.0,29.95,North,360,0.0,0.0,82,0.00,,,0.00,,2013-02-05 04:11:00,
2013-02-04 22:21:00,25.0,20.0,29.93,North,360,0.0,0.0,82,0.00,,,0.00,,2013-02-05 04:21:00,
2013-02-04 22:32:00,25.0,20.0,29.93,North,360,0.0,0.0,82,0.00,,,0.00,,2013-02-05 04:32:00,
2013-02-04 22:42:00,25.0,20.0,29.93,North,360,0.0,0.0,82,0.00,,,0.00,,2013-02-05 04:42:00,
2013-02-04 22:52:00,25.0,21.0,29.94,North,360,0.0,0.0,83,0.00,,,0.00,,2013-02-05 04:52:00,
2013-02-04 23:02:00,25.0,21.0,29.94,North,360,0.0,0.0,83,0.00,,,0.00,,2013-02-05 05:02:00,
2013-02-04 23:11:00,25.0,21.0,29.94,North,360,0.0,0.0,83,0.00,,,0.00,,2013-02-05 05:11:00,
2013-02-04 23:21:00,24.0,20.0,29.93,North,360,0.0,0.0,84,0.00,,,0.00,,2013-02-05 05:21:00,
2013-02-04 23:32:00,24.0,20.0,29.93,North,360,0.0,0.0,84,0.00,,,0.00,,2013-02-05 05:32:00,
2013-02-04 23:42:00,24.0,20.0,29.93,North,360,0.0,0.0,84,0.00,,,0.00,,2013-02-05 05:42:00,
2013-02-04 23:52:00,24.0,20.0,29.91,North,360,0.0,0.0,84,0.00,,,0.00,,2013-02-05 05:52:00,